GFA87S OBBI-EDDM

Flight info

Callsign GFA87S
Flight time N/A
Altitude 32000
Route BHR B457 NARMI N697 HIL T540 ENABI L550 NOVPA N697 MENLI L677 CVO L617 NOZ L551 ANTAR/N0454F340 DCT RIGRO DCT FSK UL608 DISOR DCT LONTA UL608 DOLEV DCT OSLUD DCT BOSNA/N0452F360 DCT TIVNU DCT INGID DCT RASTA DCT REDBU Q112 NAPSA NAPSA4A
Aircraft A21N/M-SDE1E2E3FGHIJ1M1P2RWY/B1H

Departure

Time 2026-04-29 14:00
Airport Bahrain International Airport (OBBI)

Arrival

Time N/A
Airport Munich Airport (EDDM)
Time Latitude Longitude Altitude Speed Heading
2026-04-29 13:30 26.26842 50.63005 11 ft 0 kts 212°
2026-04-29 13:48 26.26845 50.63007 11 ft 2 kts 212°
2026-04-29 13:49 26.26857 50.63016 11 ft 2 kts 212°
2026-04-29 13:49 26.26870 50.63025 11 ft 2 kts 212°
2026-04-29 13:49 26.26883 50.63034 11 ft 2 kts 212°
2026-04-29 13:49 26.26896 50.63043 11 ft 2 kts 212°
2026-04-29 13:50 26.26909 50.63052 11 ft 2 kts 206°
2026-04-29 13:50 26.26923 50.63055 11 ft 2 kts 178°
2026-04-29 13:50 26.26938 50.63052 11 ft 2 kts 156°
2026-04-29 13:50 26.26951 50.63043 11 ft 2 kts 133°
2026-04-29 13:51 26.26959 50.63029 11 ft 1 kts 118°
2026-04-29 13:51 26.26961 50.63025 11 ft 0 kts 121°
2026-04-29 13:53 26.26958 50.63031 11 ft 2 kts 121°
2026-04-29 13:54 26.26945 50.63055 11 ft 4 kts 122°
2026-04-29 13:54 26.26922 50.63094 11 ft 6 kts 123°
2026-04-29 13:54 26.26918 50.63147 11 ft 7 kts 61°
2026-04-29 13:54 26.26958 50.63184 11 ft 7 kts 49°
2026-04-29 13:55 26.26958 50.63238 11 ft 8 kts 126°
2026-04-29 13:55 26.26924 50.63297 11 ft 10 kts 123°
2026-04-29 13:55 26.26881 50.63371 11 ft 12 kts 122°
2026-04-29 13:55 26.26829 50.63461 11 ft 15 kts 123°
2026-04-29 13:56 26.26766 50.63571 11 ft 18 kts 122°
2026-04-29 13:56 26.26688 50.63706 11 ft 22 kts 123°
2026-04-29 13:56 26.26600 50.63859 11 ft 24 kts 122°
2026-04-29 13:56 26.26511 50.64015 11 ft 24 kts 122°
2026-04-29 13:57 26.26421 50.64171 11 ft 23 kts 122°
2026-04-29 13:57 26.26332 50.64324 11 ft 23 kts 122°
2026-04-29 13:57 26.26244 50.64478 11 ft 23 kts 123°
2026-04-29 13:57 26.26187 50.64579 11 ft 23 kts 122°
2026-04-29 13:58 26.26075 50.64774 11 ft 21 kts 123°
2026-04-29 13:58 26.26026 50.64866 11 ft 9 kts 104°
2026-04-29 13:58 26.26036 50.64938 11 ft 9 kts 59°
2026-04-29 13:58 26.26081 50.64986 11 ft 8 kts 34°
2026-04-29 13:59 26.26131 50.65018 11 ft 7 kts
2026-04-29 13:59 26.26149 50.64993 11 ft 9 kts 302°
2026-04-29 13:59 26.26314 50.64706 11 ft 78 kts 303°
2026-04-29 13:59 26.26725 50.63988 11 ft 138 kts 303°
2026-04-29 14:00 26.27338 50.62920 71 ft 180 kts 304°
2026-04-29 14:00 26.27982 50.61791 763 ft 173 kts 305°
2026-04-29 14:00 26.28601 50.60668 1403 ft 171 kts 306°
2026-04-29 14:00 26.29201 50.59473 1748 ft 187 kts 294°
2026-04-29 14:01 26.29348 50.57946 2053 ft 209 kts 277°
2026-04-29 14:01 26.29385 50.56267 2409 ft 223 kts 275°
2026-04-29 14:01 26.29429 50.54487 2698 ft 243 kts 276°
2026-04-29 14:01 26.29498 50.52534 3047 ft 261 kts 275°
2026-04-29 14:02 26.29561 50.50481 3552 ft 272 kts 274°
2026-04-29 14:02 26.29625 50.48367 4289 ft 274 kts 273°
2026-04-29 14:02 26.29689 50.46240 4956 ft 278 kts 272°
2026-04-29 14:02 26.29756 50.44102 5631 ft 280 kts 271°
2026-04-29 14:03 26.29822 50.41918 6311 ft 283 kts 270°
2026-04-29 14:03 26.29885 50.39733 6990 ft 284 kts 270°
2026-04-29 14:03 26.29948 50.37561 7712 ft 283 kts 269°
2026-04-29 14:03 26.30011 50.35367 8407 ft 284 kts 269°
2026-04-29 14:04 26.30189 50.33196 9061 ft 287 kts 276°
2026-04-29 14:04 26.30698 50.31047 9722 ft 290 kts 285°
2026-04-29 14:04 26.31425 50.28936 10364 ft 292 kts 287°
2026-04-29 14:04 26.32194 50.26813 10701 ft 305 kts 288°
2026-04-29 14:05 26.33011 50.24560 10969 ft 320 kts 288°
2026-04-29 14:05 26.33855 50.22236 11229 ft 334 kts 288°
2026-04-29 14:05 26.34750 50.19761 11497 ft 349 kts 288°
2026-04-29 14:05 26.35662 50.17231 11761 ft 361 kts 288°
2026-04-29 14:06 26.36608 50.14617 12273 ft 366 kts 288°
2026-04-29 14:06 26.37563 50.11973 12924 ft 367 kts 288°
2026-04-29 14:06 26.38503 50.09364 13533 ft 368 kts 288°
2026-04-29 14:06 26.39462 50.06692 14135 ft 369 kts 288°
2026-04-29 14:07 26.40412 50.04042 14745 ft 370 kts 288°
2026-04-29 14:07 26.41357 50.01402 15315 ft 372 kts 288°
2026-04-29 14:07 26.42323 49.98706 15893 ft 373 kts 288°
2026-04-29 14:07 26.43285 49.96021 16470 ft 374 kts 288°
2026-04-29 14:08 26.44238 49.93356 17010 ft 375 kts 288°
2026-04-29 14:08 26.45203 49.90656 17543 ft 377 kts 288°
2026-04-29 14:08 26.46175 49.87931 18047 ft 379 kts 288°
2026-04-29 14:08 26.47158 49.85182 18532 ft 381 kts 287°
2026-04-29 14:09 26.48130 49.82457 18974 ft 384 kts 287°
2026-04-29 14:09 26.49116 49.79672 19428 ft 386 kts 287°
2026-04-29 14:09 26.50001 49.76839 19854 ft 388 kts 283°
2026-04-29 14:09 26.50769 49.73932 20294 ft 390 kts 281°
2026-04-29 14:10 26.51515 49.71005 20711 ft 393 kts 281°
2026-04-29 14:10 26.52260 49.68057 21098 ft 396 kts 281°
2026-04-29 14:10 26.52997 49.65136 21495 ft 399 kts 281°
2026-04-29 14:10 26.53757 49.62122 21908 ft 401 kts 281°
2026-04-29 14:11 26.54509 49.59140 22287 ft 404 kts 280°
2026-04-29 14:11 26.55269 49.56120 22677 ft 406 kts 280°
2026-04-29 14:11 26.56035 49.53077 23031 ft 408 kts 280°
2026-04-29 14:11 26.56794 49.50053 23368 ft 409 kts 280°
2026-04-29 14:12 26.57569 49.46964 23728 ft 410 kts 280°
2026-04-29 14:12 26.58328 49.43939 24065 ft 411 kts 280°
2026-04-29 14:12 26.59098 49.40867 24367 ft 412 kts 280°
2026-04-29 14:12 26.59877 49.37757 24689 ft 412 kts 280°
2026-04-29 14:13 26.60646 49.34690 24996 ft 413 kts 280°
2026-04-29 14:13 26.61411 49.31628 25191 ft 416 kts 280°
2026-04-29 14:13 26.62196 49.28476 25345 ft 420 kts 280°
2026-04-29 14:13 26.62979 49.25336 25578 ft 422 kts 280°
2026-04-29 14:14 26.63767 49.22174 25822 ft 422 kts 280°
2026-04-29 14:14 26.64546 49.19046 26143 ft 421 kts 280°
2026-04-29 14:14 26.65330 49.15906 26530 ft 417 kts 280°
2026-04-29 14:14 26.66097 49.12838 26877 ft 414 kts 279°
2026-04-29 14:15 26.66863 49.09750 27148 ft 412 kts 279°
2026-04-29 14:15 26.67625 49.06667 27425 ft 410 kts 279°
2026-04-29 14:15 26.68378 49.03627 27711 ft 408 kts 279°
2026-04-29 14:15 26.69131 49.00582 27991 ft 406 kts 279°
2026-04-29 14:16 26.69879 48.97559 28258 ft 404 kts 279°
2026-04-29 14:16 26.70624 48.94538 28551 ft 401 kts 279°
2026-04-29 14:16 26.71362 48.91546 28835 ft 400 kts 279°
2026-04-29 14:16 26.72097 48.88553 29056 ft 399 kts 279°
2026-04-29 14:17 26.72826 48.85574 29299 ft 399 kts 279°
2026-04-29 14:17 26.73560 48.82586 29538 ft 398 kts 279°
2026-04-29 14:17 26.74283 48.79642 29764 ft 397 kts 279°
2026-04-29 14:17 26.74979 48.76656 29977 ft 395 kts 277°
2026-04-29 14:18 26.75532 48.73643 30192 ft 393 kts 275°
2026-04-29 14:18 26.75940 48.70628 30365 ft 391 kts 272°
2026-04-29 14:18 26.76201 48.67630 30494 ft 391 kts 269°
2026-04-29 14:18 26.76321 48.64608 30642 ft 390 kts 266°
2026-04-29 14:19 26.76301 48.61577 30807 ft 389 kts 265°
2026-04-29 14:19 26.76231 48.58543 30968 ft 390 kts 265°
2026-04-29 14:19 26.76159 48.55523 31108 ft 390 kts 265°
2026-04-29 14:19 26.76084 48.52507 31279 ft 390 kts 264°
2026-04-29 14:20 26.76007 48.49492 31418 ft 391 kts 264°
2026-04-29 14:20 26.75924 48.46460 31559 ft 391 kts 265°
2026-04-29 14:20 26.75843 48.43440 31699 ft 391 kts 265°
2026-04-29 14:20 26.75762 48.40397 31814 ft 392 kts 265°
2026-04-29 14:21 26.75595 48.34284 31905 ft 394 kts 265°
2026-04-29 14:21 26.75427 48.28200 31904 ft 394 kts 265°
2026-04-29 14:22 26.75257 48.22056 31911 ft 395 kts 264°
2026-04-29 14:22 26.75080 48.15964 31915 ft 393 kts 264°
2026-04-29 14:23 26.74905 48.09859 31923 ft 394 kts 264°
2026-04-29 14:23 26.74724 48.03750 31916 ft 394 kts 264°
2026-04-29 14:24 26.74539 47.97658 31915 ft 394 kts 264°
2026-04-29 14:24 26.74352 47.91522 31916 ft 394 kts 264°
2026-04-29 14:25 26.74417 47.85416 31922 ft 396 kts 269°
2026-04-29 14:25 26.74723 47.79277 31925 ft 397 kts 269°
2026-04-29 14:26 26.75029 47.73138 31933 ft 396 kts 269°
2026-04-29 14:26 26.75333 47.66992 31932 ft 395 kts 269°
2026-04-29 14:27 26.75633 47.60880 31936 ft 395 kts 269°
2026-04-29 14:28 26.76082 47.51716 31944 ft 395 kts 268°
2026-04-29 14:28 26.76375 47.45572 31946 ft 395 kts 268°
2026-04-29 14:29 26.76705 47.39471 31946 ft 396 kts 270°
2026-04-29 14:29 26.77445 47.33350 31953 ft 399 kts 274°
2026-04-29 14:30 26.78381 47.27247 31954 ft 398 kts 274°
2026-04-29 14:30 26.79317 47.21154 31953 ft 399 kts 274°
2026-04-29 14:31 26.80259 47.15029 31955 ft 398 kts 274°
2026-04-29 14:31 26.81188 47.08949 31955 ft 397 kts 274°
2026-04-29 14:32 26.82117 47.02862 31960 ft 398 kts 274°
2026-04-29 14:32 26.83044 46.96778 31963 ft 398 kts 274°
2026-04-29 14:33 26.83968 46.90664 31964 ft 398 kts 274°
2026-04-29 14:33 26.84894 46.84565 31965 ft 397 kts 274°
2026-04-29 14:34 26.85805 46.78511 31966 ft 397 kts 274°
2026-04-29 14:34 26.86716 46.72458 31966 ft 396 kts 274°
2026-04-29 14:35 26.87628 46.66389 31966 ft 395 kts 274°
2026-04-29 14:35 26.88530 46.60338 31963 ft 394 kts 273°
2026-04-29 14:36 26.89434 46.54268 31966 ft 395 kts 273°
2026-04-29 14:36 26.90324 46.48255 31969 ft 394 kts 274°
2026-04-29 14:37 26.91224 46.42176 31973 ft 395 kts 273°
2026-04-29 14:37 26.92122 46.36118 31970 ft 395 kts 273°
2026-04-29 14:38 26.93019 46.30096 31975 ft 395 kts 273°
2026-04-29 14:38 26.93912 46.24060 31973 ft 394 kts 273°
2026-04-29 14:39 26.94806 46.18004 31975 ft 394 kts 273°
2026-04-29 14:39 26.95694 46.11955 31972 ft 394 kts 273°
2026-04-29 14:40 26.96575 46.05928 31974 ft 394 kts 273°
2026-04-29 14:40 26.97457 45.99890 31975 ft 394 kts 272°
2026-04-29 14:41 26.98337 45.93821 31977 ft 393 kts 273°
2026-04-29 14:41 26.99213 45.87784 31980 ft 393 kts 273°
2026-04-29 14:42 27.00082 45.81772 31982 ft 392 kts 273°
2026-04-29 14:42 27.00950 45.75729 31983 ft 392 kts 273°
2026-04-29 14:43 27.01808 45.69736 31985 ft 392 kts 273°
2026-04-29 14:43 27.02672 45.63691 31984 ft 392 kts 273°
2026-04-29 14:44 27.03529 45.57685 31987 ft 392 kts 273°
2026-04-29 14:44 27.04382 45.51687 31991 ft 391 kts 273°
2026-04-29 14:45 27.05239 45.45664 31988 ft 391 kts 272°
2026-04-29 14:45 27.05983 45.39641 31989 ft 390 kts 271°
2026-04-29 14:46 27.06642 45.33642 31995 ft 390 kts 271°
2026-04-29 14:46 27.07307 45.27637 31991 ft 390 kts 270°
2026-04-29 14:47 27.07972 45.21593 31991 ft 389 kts 270°
2026-04-29 14:47 27.08641 45.15564 31994 ft 391 kts 271°
2026-04-29 14:48 27.09304 45.09532 31996 ft 390 kts 271°
2026-04-29 14:48 27.09965 45.03521 31997 ft 389 kts 270°
2026-04-29 14:49 27.10621 44.97519 31996 ft 390 kts 271°
2026-04-29 14:49 27.11278 44.91490 31994 ft 389 kts 270°
2026-04-29 14:50 27.11933 44.85448 31994 ft 389 kts 271°
2026-04-29 14:50 27.12579 44.79457 31993 ft 390 kts 271°
2026-04-29 14:51 27.13225 44.73424 31994 ft 389 kts 271°
2026-04-29 14:51 27.13875 44.67417 31990 ft 389 kts 270°
2026-04-29 14:52 27.14523 44.61380 31991 ft 389 kts 271°
2026-04-29 14:52 27.15161 44.55388 31990 ft 388 kts 271°
2026-04-29 14:53 27.15801 44.49366 31997 ft 389 kts 271°
2026-04-29 14:53 27.16434 44.43345 32007 ft 388 kts 271°
2026-04-29 14:54 27.17068 44.37323 32008 ft 388 kts 271°
2026-04-29 14:54 27.17694 44.31350 32010 ft 387 kts 270°
2026-04-29 14:55 27.18320 44.25338 32014 ft 389 kts 270°
2026-04-29 14:55 27.18939 44.19338 32213 ft 387 kts 270°
2026-04-29 14:55 27.19249 44.16336 32329 ft 387 kts 270°
2026-04-29 14:56 27.19558 44.13326 32466 ft 387 kts 270°
2026-04-29 14:56 27.19862 44.10325 32603 ft 386 kts 270°
2026-04-29 14:56 27.20169 44.07335 32739 ft 386 kts 270°
2026-04-29 14:56 27.20469 44.04388 32873 ft 386 kts 270°
2026-04-29 14:57 27.20773 44.01382 33011 ft 385 kts 270°
2026-04-29 14:57 27.21074 43.98413 33146 ft 384 kts 270°
2026-04-29 14:57 27.21377 43.95408 33280 ft 384 kts 270°
2026-04-29 14:57 27.21677 43.92438 33413 ft 383 kts 270°
2026-04-29 14:58 27.21975 43.89468 33548 ft 383 kts 270°
2026-04-29 14:58 27.22272 43.86504 33681 ft 383 kts 270°
2026-04-29 14:58 27.22569 43.83556 33815 ft 383 kts 270°
2026-04-29 14:58 27.22865 43.80572 33955 ft 382 kts 270°
2026-04-29 14:59 27.23155 43.77636 34006 ft 382 kts 271°
2026-04-29 14:59 27.23748 43.71689 34016 ft 381 kts 270°
2026-04-29 15:00 27.24340 43.65765 34014 ft 382 kts 270°
2026-04-29 15:00 27.24928 43.59851 34013 ft 382 kts 270°
2026-04-29 15:01 27.25514 43.53934 34008 ft 381 kts 270°
2026-04-29 15:01 27.26096 43.48001 34005 ft 382 kts 270°
2026-04-29 15:02 27.26675 43.42099 34012 ft 382 kts 270°
2026-04-29 15:02 27.27251 43.36186 34009 ft 382 kts 270°
2026-04-29 15:03 27.27825 43.30244 34022 ft 381 kts 270°
2026-04-29 15:03 27.28396 43.24346 34027 ft 381 kts 270°
2026-04-29 15:04 27.28964 43.18423 34029 ft 381 kts 270°
2026-04-29 15:04 27.29514 43.12665 34028 ft 381 kts 270°
2026-04-29 15:05 27.30080 43.06712 34030 ft 381 kts 270°
2026-04-29 15:05 27.30637 43.00839 34030 ft 380 kts 270°
2026-04-29 15:06 27.31196 42.94915 34032 ft 381 kts 270°
2026-04-29 15:06 27.31751 42.89017 34035 ft 381 kts 270°
2026-04-29 15:07 27.32300 42.83096 34035 ft 381 kts 270°
2026-04-29 15:07 27.32855 42.77159 34036 ft 381 kts 270°
2026-04-29 15:08 27.33399 42.71256 34041 ft 381 kts 270°
2026-04-29 15:08 27.33939 42.65371 34043 ft 381 kts 270°
2026-04-29 15:09 27.34485 42.59435 34043 ft 380 kts 270°
2026-04-29 15:09 27.35020 42.53551 34046 ft 381 kts 270°
2026-04-29 15:10 27.35554 42.47644 34043 ft 380 kts 270°
2026-04-29 15:10 27.36092 42.41701 34051 ft 381 kts 270°
2026-04-29 15:11 27.36628 42.35780 34052 ft 381 kts 270°
2026-04-29 15:11 27.37157 42.29887 34053 ft 381 kts 270°
2026-04-29 15:12 27.37685 42.23973 34056 ft 382 kts 270°
2026-04-29 15:12 27.38212 42.18035 34061 ft 382 kts 270°
2026-04-29 15:13 27.38734 42.12099 34059 ft 381 kts 270°
2026-04-29 15:13 27.39254 42.06176 34057 ft 381 kts 270°
2026-04-29 15:14 27.39770 42.00269 34051 ft 381 kts 270°
2026-04-29 15:14 27.40284 41.94344 34052 ft 381 kts 270°
2026-04-29 15:15 27.40793 41.88439 34046 ft 381 kts 270°
2026-04-29 15:15 27.41300 41.82501 34049 ft 381 kts 270°
2026-04-29 15:16 27.41928 41.76588 34053 ft 384 kts 274°
2026-04-29 15:16 27.43158 41.70699 34053 ft 389 kts 280°
2026-04-29 15:17 27.45023 41.64951 34066 ft 396 kts 285°
2026-04-29 15:17 27.47558 41.59362 34067 ft 404 kts 292°
2026-04-29 15:18 27.50505 41.53985 34080 ft 405 kts 293°
2026-04-29 15:18 27.53487 41.48600 34086 ft 404 kts 293°
2026-04-29 15:19 27.56473 41.43212 34075 ft 405 kts 293°
2026-04-29 15:19 27.59456 41.37823 34071 ft 407 kts 294°
2026-04-29 15:20 27.62466 41.32383 34062 ft 413 kts 293°
2026-04-29 15:20 27.65512 41.26865 34058 ft 416 kts 293°
2026-04-29 15:21 27.68560 41.21355 34051 ft 416 kts 293°
2026-04-29 15:21 27.71610 41.15820 34044 ft 416 kts 293°
2026-04-29 15:22 27.74646 41.10299 34043 ft 414 kts 294°
2026-04-29 15:22 27.77697 41.04750 34049 ft 416 kts 294°
2026-04-29 15:23 27.80740 40.99227 34035 ft 416 kts 294°
2026-04-29 15:23 27.83780 40.93691 34045 ft 416 kts 294°
2026-04-29 15:24 27.86837 40.88118 34040 ft 415 kts 294°
2026-04-29 15:24 27.89861 40.82587 34045 ft 416 kts 294°
2026-04-29 15:25 27.92895 40.77035 34037 ft 416 kts 294°
2026-04-29 15:25 27.95928 40.71472 34051 ft 416 kts 294°
2026-04-29 15:26 27.98952 40.65917 34058 ft 415 kts 294°
2026-04-29 15:26 28.01967 40.60377 34049 ft 415 kts 294°
2026-04-29 15:27 28.04987 40.54820 34057 ft 416 kts 295°
2026-04-29 15:27 28.08000 40.49263 34057 ft 414 kts 294°
2026-04-29 15:28 28.11010 40.43711 34056 ft 414 kts 295°
2026-04-29 15:28 28.14028 40.38129 34062 ft 415 kts 295°
2026-04-29 15:29 28.17026 40.32579 34069 ft 413 kts 294°
2026-04-29 15:30 28.22995 40.21508 34071 ft 414 kts 295°
2026-04-29 15:30 28.25978 40.15955 34054 ft 414 kts 295°
2026-04-29 15:31 28.29018 40.10368 34061 ft 415 kts 297°
2026-04-29 15:31 28.32416 40.05057 34052 ft 421 kts 301°
2026-04-29 15:32 28.36085 39.99886 34067 ft 421 kts 302°
2026-04-29 15:32 28.39750 39.94732 34047 ft 419 kts 302°
2026-04-29 15:33 28.43396 39.89603 34049 ft 419 kts 302°
2026-04-29 15:33 28.47068 39.84427 34048 ft 420 kts 302°
2026-04-29 15:34 28.50725 39.79263 34048 ft 420 kts 302°
2026-04-29 15:34 28.54374 39.74105 34052 ft 419 kts 302°
2026-04-29 15:35 28.58027 39.68938 34044 ft 421 kts 303°
2026-04-29 15:35 28.61672 39.63773 34040 ft 419 kts 302°
2026-04-29 15:36 28.65317 39.58603 34050 ft 419 kts 302°
2026-04-29 15:36 28.68969 39.53414 34051 ft 420 kts 303°
2026-04-29 15:37 28.72582 39.48277 34037 ft 418 kts 303°
2026-04-29 15:37 28.76113 39.43250 34049 ft 418 kts 303°
2026-04-29 15:38 28.79732 39.38089 34041 ft 418 kts 303°
2026-04-29 15:38 28.83381 39.32876 34037 ft 419 kts 302°
2026-04-29 15:39 28.87005 39.27698 34038 ft 419 kts 303°
2026-04-29 15:39 28.90628 39.22509 34044 ft 418 kts 303°
2026-04-29 15:40 28.94237 39.17335 34046 ft 418 kts 303°
2026-04-29 15:40 28.97852 39.12143 34041 ft 417 kts 303°
2026-04-29 15:41 29.01471 39.06941 34044 ft 418 kts 303°
2026-04-29 15:41 29.05057 39.01739 34037 ft 417 kts 301°
2026-04-29 15:42 29.07998 38.96103 34032 ft 412 kts 291°
2026-04-29 15:42 29.09949 38.90036 34035 ft 408 kts 282°
2026-04-29 15:43 29.10898 38.83703 34032 ft 405 kts 274°
2026-04-29 15:43 29.11006 38.77271 34031 ft 405 kts 270°
2026-04-29 15:44 29.10988 38.70846 34030 ft 405 kts 270°
2026-04-29 15:44 29.10955 38.64432 34030 ft 405 kts 270°
2026-04-29 15:45 29.10918 38.58019 34027 ft 404 kts 270°
2026-04-29 15:45 29.10880 38.51620 34030 ft 404 kts 270°
2026-04-29 15:46 29.10837 38.45227 34028 ft 404 kts 270°
2026-04-29 15:46 29.10791 38.38810 34032 ft 404 kts 270°
2026-04-29 15:47 29.10746 38.32412 34035 ft 403 kts 270°
2026-04-29 15:47 29.10697 38.26005 34032 ft 404 kts 270°
2026-04-29 15:48 29.10641 38.19629 34031 ft 403 kts 270°
2026-04-29 15:48 29.10581 38.13216 34029 ft 403 kts 270°
2026-04-29 15:48 29.10551 38.10052 33923 ft 403 kts 270°
2026-04-29 15:49 29.10521 38.06850 33984 ft 404 kts 270°
2026-04-29 15:49 29.10454 38.00410 34034 ft 405 kts 270°
2026-04-29 15:50 29.10386 37.94017 34031 ft 404 kts 270°
2026-04-29 15:50 29.10313 37.87590 34027 ft 404 kts 270°
2026-04-29 15:51 29.10239 37.81192 34029 ft 404 kts 270°
2026-04-29 15:51 29.10161 37.74807 34032 ft 404 kts 270°
2026-04-29 15:52 29.10081 37.68404 34037 ft 403 kts 270°
2026-04-29 15:52 29.09995 37.62029 34041 ft 402 kts 270°
2026-04-29 15:53 29.09906 37.55687 34041 ft 402 kts 270°
2026-04-29 15:53 29.09824 37.49298 34045 ft 401 kts 271°
2026-04-29 15:54 29.09782 37.42973 34166 ft 401 kts 271°
2026-04-29 15:54 29.09741 37.36607 34083 ft 400 kts 271°
2026-04-29 15:55 29.09691 37.30258 34067 ft 400 kts 270°
2026-04-29 15:55 29.09640 37.23927 34073 ft 401 kts 270°
2026-04-29 15:56 29.09583 37.17579 34077 ft 400 kts 271°
2026-04-29 15:56 29.09523 37.11232 34091 ft 400 kts 271°
2026-04-29 15:57 29.09461 37.04870 34092 ft 400 kts 271°
2026-04-29 15:57 29.09395 36.98527 34089 ft 401 kts 271°
2026-04-29 15:58 29.09324 36.92207 34089 ft 399 kts 271°
2026-04-29 15:58 29.09253 36.85901 34085 ft 399 kts 271°
2026-04-29 15:59 29.09177 36.79579 34081 ft 398 kts 271°
2026-04-29 15:59 29.09100 36.73260 34068 ft 399 kts 271°
2026-04-29 16:00 29.09021 36.66936 34059 ft 399 kts 271°
2026-04-29 16:00 29.08936 36.60590 34057 ft 400 kts 271°
2026-04-29 16:01 29.08844 36.54265 34055 ft 399 kts 271°
2026-04-29 16:01 29.08800 36.51129 33954 ft 399 kts 271°
2026-04-29 16:01 29.08754 36.47964 34097 ft 399 kts 271°
2026-04-29 16:02 29.08602 36.41624 34026 ft 400 kts 270°
2026-04-29 16:02 29.08428 36.35301 34034 ft 399 kts 270°
2026-04-29 16:03 29.08252 36.28941 34040 ft 400 kts 270°
2026-04-29 16:03 29.08077 36.22640 34024 ft 399 kts 270°
2026-04-29 16:04 29.07895 36.16298 34025 ft 399 kts 270°
2026-04-29 16:04 29.07712 36.09982 34027 ft 399 kts 270°
2026-04-29 16:05 29.07528 36.03686 34017 ft 398 kts 270°
2026-04-29 16:05 29.07341 35.97389 34022 ft 398 kts 270°
2026-04-29 16:06 29.07149 35.91036 34022 ft 398 kts 270°
2026-04-29 16:06 29.06956 35.84706 34041 ft 399 kts 270°
2026-04-29 16:07 29.06759 35.78401 34050 ft 399 kts 270°
2026-04-29 16:07 29.06558 35.72057 34063 ft 399 kts 270°
2026-04-29 16:08 29.06352 35.65731 34069 ft 400 kts 270°
2026-04-29 16:08 29.06145 35.59379 34082 ft 400 kts 270°
2026-04-29 16:09 29.05938 35.53054 34087 ft 400 kts 270°
2026-04-29 16:09 29.05725 35.46728 34086 ft 400 kts 270°
2026-04-29 16:10 29.05509 35.40342 34086 ft 399 kts 270°
2026-04-29 16:10 29.05290 35.34039 34083 ft 400 kts 269°
2026-04-29 16:11 29.05068 35.27716 34082 ft 400 kts 269°
2026-04-29 16:11 29.04843 35.21363 34087 ft 401 kts 269°
2026-04-29 16:12 29.04612 35.14977 34088 ft 402 kts 270°
2026-04-29 16:12 29.04381 35.08605 34076 ft 402 kts 269°
2026-04-29 16:13 29.04144 35.02235 34068 ft 402 kts 269°
2026-04-29 16:13 29.03907 34.95880 34055 ft 402 kts 269°
2026-04-29 16:14 29.03661 34.89488 34038 ft 403 kts 269°
2026-04-29 16:14 29.03432 34.83145 34022 ft 403 kts 270°
2026-04-29 16:15 29.03344 34.76754 33997 ft 402 kts 271°
2026-04-29 16:15 29.03673 34.70398 33987 ft 401 kts 278°
2026-04-29 16:16 29.04575 34.64157 33997 ft 400 kts 282°
2026-04-29 16:16 29.05951 34.58035 34018 ft 400 kts 287°
2026-04-29 16:17 29.07687 34.52007 34038 ft 400 kts 288°
2026-04-29 16:17 29.09449 34.45987 34065 ft 400 kts 288°
2026-04-29 16:18 29.11204 34.39985 34087 ft 399 kts 288°
2026-04-29 16:18 29.12964 34.33964 34103 ft 399 kts 288°
2026-04-29 16:19 29.14718 34.27946 34117 ft 398 kts 288°
2026-04-29 16:19 29.16460 34.21967 34121 ft 398 kts 287°
2026-04-29 16:20 29.18204 34.15954 34134 ft 397 kts 288°
2026-04-29 16:20 29.19938 34.09966 34143 ft 397 kts 288°
2026-04-29 16:21 29.21660 34.04011 34147 ft 398 kts 288°
2026-04-29 16:21 29.23395 33.97993 34137 ft 398 kts 288°
2026-04-29 16:22 29.25129 33.92007 34127 ft 398 kts 288°
2026-04-29 16:22 29.26853 33.86038 34126 ft 396 kts 288°
2026-04-29 16:23 29.28572 33.80062 34113 ft 395 kts 288°
2026-04-29 16:23 29.30290 33.74079 34106 ft 396 kts 288°
2026-04-29 16:24 29.31998 33.68114 34097 ft 396 kts 288°
2026-04-29 16:24 29.33705 33.62139 34091 ft 395 kts 288°
2026-04-29 16:25 29.35407 33.56173 34084 ft 395 kts 288°
2026-04-29 16:25 29.37114 33.50173 34082 ft 396 kts 288°
2026-04-29 16:26 29.38815 33.44183 34068 ft 396 kts 288°
2026-04-29 16:26 29.40509 33.38213 34071 ft 395 kts 288°
2026-04-29 16:27 29.42205 33.32215 34069 ft 396 kts 288°
2026-04-29 16:27 29.43887 33.26251 34066 ft 395 kts 288°
2026-04-29 16:28 29.45572 33.20277 34060 ft 395 kts 288°
2026-04-29 16:28 29.47264 33.14262 34042 ft 395 kts 288°
2026-04-29 16:29 29.48939 33.08297 34028 ft 394 kts 288°
2026-04-29 16:29 29.50610 33.02333 34017 ft 394 kts 288°
2026-04-29 16:30 29.52279 32.96363 34006 ft 394 kts 288°
2026-04-29 16:30 29.53953 32.90358 34007 ft 395 kts 288°
2026-04-29 16:31 29.55613 32.84393 34006 ft 395 kts 288°
2026-04-29 16:31 29.57271 32.78421 34004 ft 394 kts 288°
2026-04-29 16:32 29.58946 32.72372 34000 ft 395 kts 288°
2026-04-29 16:32 29.60508 32.66344 33995 ft 395 kts 285°
2026-04-29 16:33 29.62592 32.57236 33997 ft 394 kts 285°
2026-04-29 16:33 29.63977 32.51128 33995 ft 395 kts 285°
2026-04-29 16:34 29.65352 32.45056 33999 ft 395 kts 285°
2026-04-29 16:34 29.66735 32.38930 34007 ft 395 kts 285°
2026-04-29 16:35 29.68104 32.32842 34016 ft 395 kts 285°
2026-04-29 16:35 29.69470 32.26759 34016 ft 394 kts 285°
2026-04-29 16:36 29.70837 32.20655 34021 ft 394 kts 285°
2026-04-29 16:36 29.72201 32.14549 34022 ft 395 kts 285°
2026-04-29 16:37 29.73559 32.08443 34021 ft 395 kts 285°
2026-04-29 16:37 29.74689 32.03348 34021 ft 395 kts 285°
2026-04-29 16:38 29.76317 31.96269 34023 ft 394 kts 287°
2026-04-29 16:38 29.78167 31.90339 34030 ft 394 kts 292°
2026-04-29 16:39 29.80517 31.84643 34035 ft 396 kts 297°
2026-04-29 16:39 29.83367 31.79211 34034 ft 398 kts 302°
2026-04-29 16:40 29.86597 31.74030 34037 ft 398 kts 303°
2026-04-29 16:40 29.89860 31.68917 34032 ft 398 kts 304°
2026-04-29 16:41 29.93147 31.63811 34033 ft 398 kts 304°
2026-04-29 16:41 29.96473 31.58684 34027 ft 398 kts 304°
2026-04-29 16:42 29.99771 31.53580 34031 ft 398 kts 304°
2026-04-29 16:42 30.03084 31.48439 34032 ft 399 kts 304°
2026-04-29 16:43 30.06389 31.43320 34030 ft 398 kts 305°
2026-04-29 16:43 30.09986 31.38416 34019 ft 400 kts 309°
2026-04-29 16:44 30.13937 31.33893 34017 ft 401 kts 313°
2026-04-29 16:44 30.18015 31.29499 34013 ft 401 kts 313°
2026-04-29 16:45 30.22118 31.25086 34014 ft 402 kts 313°
2026-04-29 16:45 30.26188 31.20706 34014 ft 402 kts 313°
2026-04-29 16:46 30.30274 31.16304 34019 ft 401 kts 313°
2026-04-29 16:46 30.34355 31.11902 34022 ft 401 kts 313°
2026-04-29 16:47 30.38450 31.07482 34025 ft 401 kts 313°
2026-04-29 16:47 30.42515 31.03088 34030 ft 401 kts 313°
2026-04-29 16:48 30.46582 30.98686 34030 ft 400 kts 313°
2026-04-29 16:48 30.50616 30.94316 34029 ft 400 kts 313°
2026-04-29 16:49 30.54684 30.89902 34030 ft 400 kts 312°
2026-04-29 16:49 30.58720 30.85516 34034 ft 399 kts 313°
2026-04-29 16:50 30.62766 30.81117 34035 ft 399 kts 313°
2026-04-29 16:50 30.66824 30.76696 34036 ft 399 kts 313°
2026-04-29 16:51 30.70881 30.72273 34041 ft 399 kts 313°
2026-04-29 16:51 30.74892 30.67894 34043 ft 398 kts 313°
2026-04-29 16:52 30.78923 30.63489 34047 ft 398 kts 313°
2026-04-29 16:52 30.82949 30.59081 34052 ft 397 kts 313°
2026-04-29 16:53 30.86972 30.54673 34055 ft 397 kts 313°
2026-04-29 16:53 30.90988 30.50264 34064 ft 397 kts 312°
2026-04-29 16:54 30.94982 30.45871 34058 ft 396 kts 313°
2026-04-29 16:54 30.98984 30.41466 34060 ft 395 kts 312°
2026-04-29 16:55 31.02926 30.37031 34059 ft 393 kts 310°
2026-04-29 16:55 31.06401 30.32166 34057 ft 390 kts 303°
2026-04-29 16:56 31.09281 30.26861 34059 ft 388 kts 297°
2026-04-29 16:56 31.11557 30.21149 34058 ft 388 kts 290°
2026-04-29 16:57 31.13280 30.15221 34058 ft 388 kts 288°
2026-04-29 16:57 31.14928 30.09224 34060 ft 389 kts 288°
2026-04-29 16:58 31.16820 30.03338 34058 ft 389 kts 295°
2026-04-29 16:58 31.19666 29.97940 34058 ft 391 kts 304°
2026-04-29 16:59 31.23370 29.93291 34059 ft 396 kts 314°
2026-04-29 16:59 31.27894 29.89524 34059 ft 404 kts 324°
2026-04-29 17:00 31.32828 29.86358 34056 ft 405 kts 325°
2026-04-29 17:00 31.37780 29.83244 34056 ft 405 kts 325°
2026-04-29 17:01 31.42731 29.80138 34059 ft 405 kts 325°
2026-04-29 17:01 31.47720 29.77006 34059 ft 405 kts 325°
2026-04-29 17:02 31.52663 29.73900 34057 ft 405 kts 326°
2026-04-29 17:02 31.57638 29.70773 34057 ft 404 kts 325°
2026-04-29 17:03 31.62576 29.67666 34059 ft 404 kts 325°
2026-04-29 17:03 31.67503 29.64559 34059 ft 403 kts 325°
2026-04-29 17:04 31.72454 29.61436 34056 ft 403 kts 325°
2026-04-29 17:04 31.77403 29.58307 34058 ft 403 kts 325°
2026-04-29 17:05 31.82313 29.55198 34062 ft 403 kts 325°
2026-04-29 17:05 31.87264 29.52061 34057 ft 403 kts 325°
2026-04-29 17:06 31.92192 29.48931 34054 ft 402 kts 325°
2026-04-29 17:06 31.97090 29.45818 34054 ft 402 kts 325°
2026-04-29 17:07 32.01180 29.43218 34051 ft 401 kts 326°
2026-04-29 17:07 32.06914 29.39574 34048 ft 402 kts 326°
2026-04-29 17:08 32.11852 29.36426 34050 ft 404 kts 325°
2026-04-29 17:08 32.16797 29.33264 34056 ft 403 kts 324°
2026-04-29 17:09 32.21726 29.30113 34051 ft 403 kts 325°
2026-04-29 17:09 32.26647 29.26974 34049 ft 403 kts 325°
2026-04-29 17:10 32.31590 29.23815 34053 ft 404 kts 325°
2026-04-29 17:10 32.36507 29.20661 34048 ft 404 kts 325°
2026-04-29 17:11 32.41454 29.17483 34046 ft 405 kts 325°
2026-04-29 17:11 32.46391 29.14304 34051 ft 404 kts 325°
2026-04-29 17:12 32.51327 29.11125 34044 ft 405 kts 325°
2026-04-29 17:12 32.55444 29.08467 34044 ft 406 kts 325°
2026-04-29 17:13 32.61231 29.04728 34043 ft 406 kts 325°
2026-04-29 17:13 32.66190 29.01518 34043 ft 406 kts 325°
2026-04-29 17:14 32.71128 28.98319 34042 ft 407 kts 325°
2026-04-29 17:14 32.76110 28.95089 34043 ft 407 kts 326°
2026-04-29 17:15 32.81067 28.91870 34044 ft 407 kts 326°
2026-04-29 17:15 32.86018 28.88651 34046 ft 407 kts 325°
2026-04-29 17:16 32.90985 28.85416 34043 ft 406 kts 326°
2026-04-29 17:16 32.95944 28.82183 34041 ft 407 kts 326°
2026-04-29 17:17 33.00919 28.78937 34043 ft 407 kts 325°
2026-04-29 17:17 33.05861 28.75705 34053 ft 407 kts 326°
2026-04-29 17:18 33.10828 28.72453 34050 ft 408 kts 326°
2026-04-29 17:18 33.15802 28.69192 34142 ft 408 kts 326°
2026-04-29 17:19 33.18307 28.67547 34250 ft 408 kts 326°
2026-04-29 17:19 33.20776 28.65927 34365 ft 409 kts 326°
2026-04-29 17:19 33.23271 28.64288 34478 ft 409 kts 326°
2026-04-29 17:19 33.25777 28.62642 34595 ft 409 kts 326°
2026-04-29 17:20 33.28270 28.61003 34707 ft 409 kts 326°
2026-04-29 17:20 33.30759 28.59364 34825 ft 409 kts 326°
2026-04-29 17:20 33.33254 28.57720 34940 ft 409 kts 326°
2026-04-29 17:20 33.35730 28.56088 35051 ft 409 kts 326°
2026-04-29 17:21 33.38220 28.54444 35167 ft 409 kts 326°
2026-04-29 17:21 33.40725 28.52792 35283 ft 409 kts 326°
2026-04-29 17:21 33.43215 28.51148 35399 ft 409 kts 326°
2026-04-29 17:21 33.45714 28.49496 35513 ft 409 kts 326°
2026-04-29 17:22 33.48177 28.47868 35624 ft 409 kts 326°
2026-04-29 17:22 33.50667 28.46219 35752 ft 408 kts 326°
2026-04-29 17:22 33.53148 28.44575 35892 ft 408 kts 326°